Year,Month,Day,Hour,Minute,Value (Times are PST for temperature in C)
2006,07,22,00,00,24.40
2006,07,22,00,01,24.50
2006,07,22,00,02,24.50
2006,07,22,00,03,24.50
2006,07,22,00,04,24.50
2006,07,22,00,05,24.50
2006,07,22,00,06,24.50
2006,07,22,00,07,24.60
2006,07,22,00,08,24.60
2006,07,22,00,09,24.60
2006,07,22,00,10,24.60
2006,07,22,00,11,24.60
2006,07,22,00,12,24.50
2006,07,22,00,13,24.50
2006,07,22,00,14,24.50
2006,07,22,00,15,24.50
2006,07,22,00,16,24.50
2006,07,22,00,17,24.50
2006,07,22,00,18,24.50
2006,07,22,00,19,24.50
2006,07,22,00,20,24.50
2006,07,22,00,21,24.50
2006,07,22,00,22,24.50
2006,07,22,00,23,24.50
2006,07,22,00,24,24.50
2006,07,22,00,25,24.50
2006,07,22,00,26,24.50
2006,07,22,00,27,24.50
2006,07,22,00,28,24.50
2006,07,22,00,29,24.50
2006,07,22,00,30,24.50
2006,07,22,00,31,24.50
2006,07,22,00,32,24.50
2006,07,22,00,33,24.50
2006,07,22,00,34,24.50
2006,07,22,00,35,24.50
2006,07,22,00,36,24.50
2006,07,22,00,37,24.50
2006,07,22,00,38,24.50
2006,07,22,00,39,24.50
2006,07,22,00,40,24.50
2006,07,22,00,41,24.50
2006,07,22,00,42,24.50
2006,07,22,00,43,24.50
2006,07,22,00,44,24.50
2006,07,22,00,45,24.40
2006,07,22,00,46,24.40
2006,07,22,00,47,24.40
2006,07,22,00,48,24.30
2006,07,22,00,49,24.30
2006,07,22,00,50,24.30
2006,07,22,00,51,24.30
2006,07,22,00,52,24.30
2006,07,22,00,53,24.20
2006,07,22,00,54,24.20
2006,07,22,00,55,24.20
2006,07,22,00,56,24.20
2006,07,22,00,57,24.10
2006,07,22,00,58,24.10
2006,07,22,00,59,24.10
2006,07,22,01,00,24.10
2006,07,22,01,01,24.10
2006,07,22,01,02,24.10
2006,07,22,01,03,24.10
2006,07,22,01,04,24.10
2006,07,22,01,05,24.10
2006,07,22,01,06,24.10
2006,07,22,01,07,24.10
2006,07,22,01,08,24.10
2006,07,22,01,09,24.10
2006,07,22,01,10,24.10
2006,07,22,01,11,24.10
2006,07,22,01,12,24.10
2006,07,22,01,13,24.20
2006,07,22,01,14,24.20
2006,07,22,01,15,24.30
2006,07,22,01,16,24.30
2006,07,22,01,17,24.30
2006,07,22,01,18,24.30
2006,07,22,01,19,24.30
2006,07,22,01,20,24.30
2006,07,22,01,21,24.30
2006,07,22,01,22,24.30
2006,07,22,01,23,24.30
2006,07,22,01,24,24.30
2006,07,22,01,25,24.30
2006,07,22,01,26,24.20
2006,07,22,01,27,24.20
2006,07,22,01,28,24.20
2006,07,22,01,29,24.20
2006,07,22,01,30,24.20
2006,07,22,01,31,24.10
2006,07,22,01,32,24.10
2006,07,22,01,33,24.10
2006,07,22,01,34,24.00
2006,07,22,01,35,23.90
2006,07,22,01,36,23.80
2006,07,22,01,37,23.80
2006,07,22,01,38,23.70
2006,07,22,01,39,23.60
2006,07,22,01,40,23.60
2006,07,22,01,41,23.40
2006,07,22,01,42,23.30
2006,07,22,01,43,23.30
2006,07,22,01,44,23.20
2006,07,22,01,45,23.20
2006,07,22,01,46,23.10
2006,07,22,01,47,23.00
2006,07,22,01,48,22.90
2006,07,22,01,49,23.00
2006,07,22,01,50,23.10
2006,07,22,01,51,23.10
2006,07,22,01,52,23.20
2006,07,22,01,53,23.20
2006,07,22,01,54,23.20
2006,07,22,01,55,23.20
2006,07,22,01,56,23.20
2006,07,22,01,57,23.10
2006,07,22,01,58,23.10
2006,07,22,01,59,23.10
2006,07,22,02,00,23.00
2006,07,22,02,01,22.90
2006,07,22,02,02,22.90
2006,07,22,02,03,22.90
2006,07,22,02,04,22.90
2006,07,22,02,05,22.80
2006,07,22,02,06,22.80
2006,07,22,02,07,22.80
2006,07,22,02,08,22.70
2006,07,22,02,09,22.70
2006,07,22,02,10,22.70
2006,07,22,02,11,22.70
2006,07,22,02,12,22.70
2006,07,22,02,13,22.80
2006,07,22,02,14,22.80
2006,07,22,02,15,22.80
2006,07,22,02,16,22.90
2006,07,22,02,17,22.90
2006,07,22,02,18,22.90
2006,07,22,02,19,22.90
2006,07,22,02,20,22.90
2006,07,22,02,21,22.90
2006,07,22,02,22,22.90
2006,07,22,02,23,22.90
2006,07,22,02,24,22.90
2006,07,22,02,25,22.90
2006,07,22,02,26,22.80
2006,07,22,02,27,22.80
2006,07,22,02,28,22.80
2006,07,22,02,29,22.70
2006,07,22,02,30,22.60
2006,07,22,02,31,22.60
2006,07,22,02,32,22.50
2006,07,22,02,33,22.50
2006,07,22,02,34,22.50
2006,07,22,02,35,22.50
2006,07,22,02,36,22.50
2006,07,22,02,37,22.60
2006,07,22,02,38,22.60
2006,07,22,02,39,22.60
2006,07,22,02,40,22.70
2006,07,22,02,41,22.70
2006,07,22,02,42,22.80
2006,07,22,02,43,22.90
2006,07,22,02,44,22.90
2006,07,22,02,45,23.00
2006,07,22,02,46,23.10
2006,07,22,02,47,23.20
2006,07,22,02,48,23.20
2006,07,22,02,49,23.20
2006,07,22,02,50,23.20
2006,07,22,02,51,23.30
2006,07,22,02,52,23.30
2006,07,22,02,53,23.30
2006,07,22,02,54,23.30
2006,07,22,02,55,23.30
2006,07,22,02,56,23.30
2006,07,22,02,57,23.30
2006,07,22,02,58,23.30
2006,07,22,02,59,23.30
2006,07,22,03,00,23.30
2006,07,22,03,01,23.30
2006,07,22,03,02,23.20
2006,07,22,03,03,23.20
2006,07,22,03,04,23.20
2006,07,22,03,05,23.10
2006,07,22,03,06,23.10
2006,07,22,03,07,23.00
2006,07,22,03,08,22.90
2006,07,22,03,09,22.90
2006,07,22,03,10,22.90
2006,07,22,03,11,22.80
2006,07,22,03,12,22.70
2006,07,22,03,13,22.60
2006,07,22,03,14,22.60
2006,07,22,03,15,22.50
2006,07,22,03,16,22.50
2006,07,22,03,17,22.50
2006,07,22,03,18,22.40
2006,07,22,03,19,22.40
2006,07,22,03,20,22.30
2006,07,22,03,21,22.30
2006,07,22,03,22,22.30
2006,07,22,03,23,22.20
2006,07,22,03,24,22.20
2006,07,22,03,25,22.20
2006,07,22,03,26,22.20
2006,07,22,03,27,22.10
2006,07,22,03,28,22.10
2006,07,22,03,29,22.10
2006,07,22,03,30,22.10
2006,07,22,03,31,22.20
2006,07,22,03,32,22.20
2006,07,22,03,33,22.20
2006,07,22,03,34,22.20
2006,07,22,03,35,22.20
2006,07,22,03,36,22.20
2006,07,22,03,37,22.20
2006,07,22,03,38,22.20
2006,07,22,03,39,22.20
2006,07,22,03,40,22.20
2006,07,22,03,41,22.20
2006,07,22,03,42,22.10
2006,07,22,03,43,22.10
2006,07,22,03,44,22.10
2006,07,22,03,45,22.10
2006,07,22,03,46,22.10
2006,07,22,03,47,22.10
2006,07,22,03,48,22.10
2006,07,22,03,49,22.10
2006,07,22,03,50,22.10
2006,07,22,03,51,22.20
2006,07,22,03,52,22.20
2006,07,22,03,53,22.20
2006,07,22,03,54,22.30
2006,07,22,03,55,22.30
2006,07,22,03,56,22.30
2006,07,22,03,57,22.40
2006,07,22,03,58,22.40
2006,07,22,03,59,22.40
2006,07,22,04,00,22.50
2006,07,22,04,01,22.50
2006,07,22,04,02,22.50
2006,07,22,04,03,22.50
2006,07,22,04,04,22.40
2006,07,22,04,05,22.40
2006,07,22,04,06,22.40
2006,07,22,04,07,22.30
2006,07,22,04,08,22.30
2006,07,22,04,09,22.30
2006,07,22,04,10,22.30
2006,07,22,04,11,22.20
2006,07,22,04,12,22.20
2006,07,22,04,13,22.20
2006,07,22,04,14,22.20
2006,07,22,04,15,22.20
2006,07,22,04,16,22.20
2006,07,22,04,17,22.20
2006,07,22,04,18,22.20
2006,07,22,04,19,22.20
2006,07,22,04,20,22.20
2006,07,22,04,21,22.30
2006,07,22,04,22,22.30
2006,07,22,04,23,22.30
2006,07,22,04,24,22.30
2006,07,22,04,25,22.30
2006,07,22,04,26,22.30
2006,07,22,04,27,22.30
2006,07,22,04,28,22.30
2006,07,22,04,29,22.30
2006,07,22,04,30,22.30
2006,07,22,04,31,22.30
2006,07,22,04,32,22.30
2006,07,22,04,33,22.20
2006,07,22,04,34,22.20
2006,07,22,04,35,22.20
2006,07,22,04,36,22.10
2006,07,22,04,37,22.10
2006,07,22,04,38,22.00
2006,07,22,04,39,22.00
2006,07,22,04,40,21.90
2006,07,22,04,41,21.90
2006,07,22,04,42,21.80
2006,07,22,04,43,21.80
2006,07,22,04,44,21.70
2006,07,22,04,45,21.70
2006,07,22,04,46,21.70
2006,07,22,04,47,21.60
2006,07,22,04,48,21.60
2006,07,22,04,49,21.60
2006,07,22,04,50,21.60
2006,07,22,04,51,21.60
2006,07,22,04,52,21.60
2006,07,22,04,53,21.60
2006,07,22,04,54,21.60
2006,07,22,04,55,21.60
2006,07,22,04,56,21.60
2006,07,22,04,57,21.50
2006,07,22,04,58,21.40
2006,07,22,04,59,21.40
2006,07,22,05,00,21.40
2006,07,22,05,01,21.40
2006,07,22,05,02,21.40
2006,07,22,05,03,21.40
2006,07,22,05,04,21.40
2006,07,22,05,05,21.40
2006,07,22,05,06,21.40
2006,07,22,05,07,21.40
2006,07,22,05,08,21.50
2006,07,22,05,09,21.50
2006,07,22,05,10,21.60
2006,07,22,05,11,21.60
2006,07,22,05,12,21.60
2006,07,22,05,13,21.60
2006,07,22,05,14,21.60
2006,07,22,05,15,21.60
2006,07,22,05,16,21.60
2006,07,22,05,17,21.60
2006,07,22,05,18,21.60
2006,07,22,05,19,21.60
2006,07,22,05,20,21.60
2006,07,22,05,21,21.60
2006,07,22,05,22,21.60
2006,07,22,05,23,21.60
2006,07,22,05,24,21.60
2006,07,22,05,25,21.60
2006,07,22,05,26,21.60
2006,07,22,05,27,21.60
2006,07,22,05,28,21.60
2006,07,22,05,29,21.60
2006,07,22,05,30,21.60
2006,07,22,05,31,21.60
2006,07,22,05,32,21.60
2006,07,22,05,33,21.60
2006,07,22,05,34,21.60
2006,07,22,05,35,21.70
2006,07,22,05,36,21.70
2006,07,22,05,37,21.70
2006,07,22,05,38,21.70
2006,07,22,05,39,21.70
2006,07,22,05,40,21.70
2006,07,22,05,41,21.70
2006,07,22,05,42,21.70
2006,07,22,05,43,21.70
2006,07,22,05,44,21.70
2006,07,22,05,45,21.70
2006,07,22,05,46,21.80
2006,07,22,05,47,21.80
2006,07,22,05,48,21.80
2006,07,22,05,49,21.80
2006,07,22,05,50,21.80
2006,07,22,05,51,21.80
2006,07,22,05,52,21.80
2006,07,22,05,53,21.80
2006,07,22,05,54,21.80
2006,07,22,05,55,21.80
2006,07,22,05,56,21.80
2006,07,22,05,57,21.80
2006,07,22,05,58,21.70
2006,07,22,05,59,21.60
2006,07,22,06,00,21.40
2006,07,22,06,01,21.30
2006,07,22,06,02,21.10
2006,07,22,06,03,20.90
2006,07,22,06,04,20.70
2006,07,22,06,05,20.50
2006,07,22,06,06,20.40
2006,07,22,06,07,20.30
2006,07,22,06,08,20.20
2006,07,22,06,09,20.20
2006,07,22,06,10,20.20
2006,07,22,06,11,20.20
2006,07,22,06,12,20.20
2006,07,22,06,13,20.20
2006,07,22,06,14,20.20
2006,07,22,06,15,20.20
2006,07,22,06,16,20.20
2006,07,22,06,17,20.20
2006,07,22,06,18,20.20
2006,07,22,06,19,20.20
2006,07,22,06,20,20.20
2006,07,22,06,21,20.20
2006,07,22,06,22,20.20
2006,07,22,06,23,20.30
2006,07,22,06,24,20.30
2006,07,22,06,25,20.30
2006,07,22,06,26,20.30
2006,07,22,06,27,20.30
2006,07,22,06,28,20.40
2006,07,22,06,29,20.40
2006,07,22,06,30,20.40
2006,07,22,06,31,20.40
2006,07,22,06,32,20.40
2006,07,22,06,33,20.40
2006,07,22,06,34,20.40
2006,07,22,06,35,20.50
2006,07,22,06,36,20.50
2006,07,22,06,37,20.50
2006,07,22,06,38,20.50
2006,07,22,06,39,20.60
2006,07,22,06,40,20.60
2006,07,22,06,41,20.60
2006,07,22,06,42,20.70
2006,07,22,06,43,20.70
2006,07,22,06,44,20.70
2006,07,22,06,45,20.70
2006,07,22,06,46,20.70
2006,07,22,06,47,20.80
2006,07,22,06,48,20.80
2006,07,22,06,49,20.80
2006,07,22,06,50,20.80
2006,07,22,06,51,20.80
2006,07,22,06,52,20.80
2006,07,22,06,53,20.80
2006,07,22,06,54,20.80
2006,07,22,06,55,20.80
2006,07,22,06,56,20.80
2006,07,22,06,57,20.80
2006,07,22,06,58,20.80
2006,07,22,06,59,20.80
2006,07,22,07,00,20.80
2006,07,22,07,01,20.80
2006,07,22,07,02,20.80
2006,07,22,07,03,20.80
2006,07,22,07,04,20.90
2006,07,22,07,05,20.90
2006,07,22,07,06,20.90
2006,07,22,07,07,20.90
2006,07,22,07,08,20.90
2006,07,22,07,09,20.90
2006,07,22,07,10,20.90
2006,07,22,07,11,20.90
2006,07,22,07,12,20.90
2006,07,22,07,13,20.90
2006,07,22,07,14,20.80
2006,07,22,07,15,20.80
2006,07,22,07,16,20.80
2006,07,22,07,17,20.80
2006,07,22,07,18,20.70
2006,07,22,07,19,20.70
2006,07,22,07,20,20.70
2006,07,22,07,21,20.70
2006,07,22,07,22,20.70
2006,07,22,07,23,20.70
2006,07,22,07,24,20.80
2006,07,22,07,25,20.80
2006,07,22,07,26,20.80
2006,07,22,07,27,20.80
2006,07,22,07,28,20.80
2006,07,22,07,29,20.80
2006,07,22,07,30,20.90
2006,07,22,07,31,20.90
2006,07,22,07,32,20.90
2006,07,22,07,33,21.00
2006,07,22,07,34,21.00
2006,07,22,07,35,21.00
2006,07,22,07,36,21.10
2006,07,22,07,37,21.10
2006,07,22,07,38,21.20
2006,07,22,07,39,21.20
2006,07,22,07,40,21.30
2006,07,22,07,41,21.30
2006,07,22,07,42,21.30
2006,07,22,07,43,21.40
2006,07,22,07,44,21.50
2006,07,22,07,45,21.60
2006,07,22,07,46,21.60
2006,07,22,07,47,21.60
2006,07,22,07,48,21.70
2006,07,22,07,49,21.70
2006,07,22,07,50,21.80
2006,07,22,07,51,21.80
2006,07,22,07,52,21.90
2006,07,22,07,53,21.90
2006,07,22,07,54,22.00
2006,07,22,07,55,22.10
2006,07,22,07,56,22.10
2006,07,22,07,57,22.20
2006,07,22,07,58,22.30
2006,07,22,07,59,22.40
2006,07,22,08,00,22.50
2006,07,22,08,01,22.60
2006,07,22,08,02,22.70
2006,07,22,08,03,22.70
2006,07,22,08,04,22.80
2006,07,22,08,05,22.90
2006,07,22,08,06,22.90
2006,07,22,08,07,22.90
2006,07,22,08,08,23.00
2006,07,22,08,09,23.10
2006,07,22,08,10,23.10
2006,07,22,08,11,23.20
2006,07,22,08,12,23.30
2006,07,22,08,13,23.30
2006,07,22,08,14,23.30
2006,07,22,08,15,23.30
2006,07,22,08,16,23.40
2006,07,22,08,17,23.50
2006,07,22,08,18,23.60
2006,07,22,08,19,23.60
2006,07,22,08,20,23.70
2006,07,22,08,21,23.70
2006,07,22,08,22,23.70
2006,07,22,08,23,23.80
2006,07,22,08,24,23.80
2006,07,22,08,25,23.80
2006,07,22,08,26,23.80
2006,07,22,08,27,23.90
2006,07,22,08,28,23.90
2006,07,22,08,29,23.90
2006,07,22,08,30,24.00
2006,07,22,08,31,24.10
2006,07,22,08,32,24.10
2006,07,22,08,33,24.20
2006,07,22,08,34,24.30
2006,07,22,08,35,24.40
2006,07,22,08,36,24.50
2006,07,22,08,37,24.60
2006,07,22,08,38,24.70
2006,07,22,08,39,24.80
2006,07,22,08,40,24.90
2006,07,22,08,41,24.90
2006,07,22,08,42,25.00
2006,07,22,08,43,25.00
2006,07,22,08,44,25.00
2006,07,22,08,45,25.00
2006,07,22,08,46,24.90
2006,07,22,08,47,24.90
2006,07,22,08,48,24.90
2006,07,22,08,49,24.90
2006,07,22,08,50,24.80
2006,07,22,08,51,24.80
2006,07,22,08,52,24.80
2006,07,22,08,53,24.80
2006,07,22,08,54,24.80
2006,07,22,08,55,24.80
2006,07,22,08,56,24.90
2006,07,22,08,57,24.90
2006,07,22,08,58,24.90
2006,07,22,08,59,25.00
2006,07,22,09,00,25.00
2006,07,22,09,01,25.00
2006,07,22,09,02,25.00
2006,07,22,09,03,25.00
2006,07,22,09,04,25.00
2006,07,22,09,05,25.00
2006,07,22,09,06,25.10
2006,07,22,09,07,25.10
2006,07,22,09,08,25.10
2006,07,22,09,09,25.20
2006,07,22,09,10,25.20
2006,07,22,09,11,25.20
2006,07,22,09,12,25.30
2006,07,22,09,13,25.30
2006,07,22,09,14,25.30
2006,07,22,09,15,25.40
2006,07,22,09,16,25.40
2006,07,22,09,17,25.50
2006,07,22,09,18,25.50
2006,07,22,09,19,25.60
2006,07,22,09,20,25.60
2006,07,22,09,21,25.60
2006,07,22,09,22,25.70
2006,07,22,09,23,25.70
2006,07,22,09,24,25.70
2006,07,22,09,25,25.80
2006,07,22,09,26,25.80
2006,07,22,09,27,25.90
2006,07,22,09,28,25.90
2006,07,22,09,29,25.90
2006,07,22,09,30,26.00
2006,07,22,09,31,26.10
2006,07,22,09,32,26.20
2006,07,22,09,33,26.20
2006,07,22,09,34,26.30
2006,07,22,09,35,26.30
2006,07,22,09,36,26.40
2006,07,22,09,37,26.50
2006,07,22,09,38,26.60
2006,07,22,09,39,26.60
2006,07,22,09,40,26.60
2006,07,22,09,41,26.70
2006,07,22,09,42,26.70
2006,07,22,09,43,26.70
2006,07,22,09,44,26.70
2006,07,22,09,45,26.70
2006,07,22,09,46,26.60
2006,07,22,09,47,26.60
2006,07,22,09,48,26.60
2006,07,22,09,49,26.60
2006,07,22,09,50,26.60
2006,07,22,09,51,26.60
2006,07,22,09,52,26.60
2006,07,22,09,53,26.60
2006,07,22,09,54,26.60
2006,07,22,09,55,26.60
2006,07,22,09,56,26.70
2006,07,22,09,57,26.70
2006,07,22,09,58,26.80
2006,07,22,09,59,26.80
2006,07,22,10,00,26.80
2006,07,22,10,01,26.80
2006,07,22,10,02,26.90
2006,07,22,10,03,26.90
2006,07,22,10,04,27.00
2006,07,22,10,05,27.10
2006,07,22,10,06,27.10
2006,07,22,10,07,27.10
2006,07,22,10,08,27.20
2006,07,22,10,09,27.20
2006,07,22,10,10,27.30
2006,07,22,10,11,27.30
2006,07,22,10,12,27.30
2006,07,22,10,13,27.40
2006,07,22,10,14,27.50
2006,07,22,10,15,27.60
2006,07,22,10,16,27.70
2006,07,22,10,17,27.80
2006,07,22,10,18,27.80
2006,07,22,10,19,27.80
2006,07,22,10,20,27.80
2006,07,22,10,21,27.80
2006,07,22,10,22,27.80
2006,07,22,10,23,27.80
2006,07,22,10,24,27.80
2006,07,22,10,25,27.80
2006,07,22,10,26,27.90
2006,07,22,10,27,27.90
2006,07,22,10,28,27.90
2006,07,22,10,29,27.90
2006,07,22,10,30,27.90
2006,07,22,10,31,27.80
2006,07,22,10,32,27.80
2006,07,22,10,33,27.80
2006,07,22,10,34,27.70
2006,07,22,10,35,27.70
2006,07,22,10,36,27.70
2006,07,22,10,37,27.70
2006,07,22,10,38,27.70
2006,07,22,10,39,27.60
2006,07,22,10,40,27.40
2006,07,22,10,41,27.30
2006,07,22,10,42,27.30
2006,07,22,10,43,27.20
2006,07,22,10,44,27.10
2006,07,22,10,45,27.00
2006,07,22,10,46,26.90
2006,07,22,10,47,26.80
2006,07,22,10,48,26.70
2006,07,22,10,49,26.60
2006,07,22,10,50,26.60
2006,07,22,10,51,26.60
2006,07,22,10,52,26.60
2006,07,22,10,53,26.60
2006,07,22,10,54,26.60
2006,07,22,10,55,26.60
2006,07,22,10,56,26.60
2006,07,22,10,57,26.60
2006,07,22,10,58,26.50
2006,07,22,10,59,26.60
2006,07,22,11,00,26.70
2006,07,22,11,01,26.70
2006,07,22,11,02,26.80
2006,07,22,11,03,26.80
2006,07,22,11,04,26.90
2006,07,22,11,05,27.10
2006,07,22,11,06,27.30
2006,07,22,11,07,27.20
2006,07,22,11,08,27.10
2006,07,22,11,09,27.00
2006,07,22,11,10,26.90
2006,07,22,11,11,26.80
2006,07,22,11,12,26.80
2006,07,22,11,13,26.70
2006,07,22,11,14,26.50
2006,07,22,11,15,26.20
2006,07,22,11,16,25.90
2006,07,22,11,17,25.70
2006,07,22,11,18,25.50
2006,07,22,11,19,25.40
2006,07,22,11,20,25.30
2006,07,22,11,21,25.20
2006,07,22,11,22,25.10
2006,07,22,11,23,25.00
2006,07,22,11,24,24.90
2006,07,22,11,25,24.80
2006,07,22,11,26,24.70
2006,07,22,11,27,24.50
2006,07,22,11,28,24.50
2006,07,22,11,29,24.40
2006,07,22,11,30,24.50
2006,07,22,11,31,24.60
2006,07,22,11,32,24.70
2006,07,22,11,33,24.70
2006,07,22,11,34,24.70
2006,07,22,11,35,24.70
2006,07,22,11,36,24.80
2006,07,22,11,37,24.80
2006,07,22,11,38,24.80
2006,07,22,11,39,24.90
2006,07,22,11,40,25.00
2006,07,22,11,41,25.10
2006,07,22,11,42,25.30
2006,07,22,11,43,25.40
2006,07,22,11,44,25.60
2006,07,22,11,45,25.70
2006,07,22,11,46,25.80
2006,07,22,11,47,25.90
2006,07,22,11,48,25.80
2006,07,22,11,49,25.60
2006,07,22,11,50,25.50
2006,07,22,11,51,25.40
2006,07,22,11,52,25.30
2006,07,22,11,53,25.10
2006,07,22,11,54,25.20
2006,07,22,11,55,25.20
2006,07,22,11,56,25.30
2006,07,22,11,57,25.40
2006,07,22,11,58,25.60
2006,07,22,11,59,25.70
2006,07,22,12,00,25.90
2006,07,22,12,01,26.00
2006,07,22,12,02,26.20
2006,07,22,12,03,26.20
2006,07,22,12,04,26.20
2006,07,22,12,05,26.20
2006,07,22,12,06,26.30
2006,07,22,12,07,26.40
2006,07,22,12,08,26.50
2006,07,22,12,09,26.50
2006,07,22,12,10,26.50
2006,07,22,12,11,26.60
2006,07,22,12,12,26.40
2006,07,22,12,13,26.30
2006,07,22,12,14,26.30
2006,07,22,12,15,26.30
2006,07,22,12,16,26.40
2006,07,22,12,17,26.50
2006,07,22,12,18,26.60
2006,07,22,12,19,26.60
2006,07,22,12,20,26.60
2006,07,22,12,21,26.60
2006,07,22,12,22,26.70
2006,07,22,12,23,26.80
2006,07,22,12,24,26.80
2006,07,22,12,25,26.70
2006,07,22,12,26,26.60
2006,07,22,12,27,26.40
2006,07,22,12,28,26.60
2006,07,22,12,29,26.60
2006,07,22,12,30,26.70
2006,07,22,12,31,26.80
2006,07,22,12,32,26.80
2006,07,22,12,33,26.90
2006,07,22,12,34,27.00
2006,07,22,12,35,26.90
2006,07,22,12,36,27.00
2006,07,22,12,37,27.10
2006,07,22,12,38,27.20
2006,07,22,12,39,27.20
2006,07,22,12,40,27.30
2006,07,22,12,41,27.40
2006,07,22,12,42,27.60
2006,07,22,12,43,27.60
2006,07,22,12,44,27.70
2006,07,22,12,45,27.80
2006,07,22,12,46,27.90
2006,07,22,12,47,28.00
2006,07,22,12,48,28.10
2006,07,22,12,49,28.10
2006,07,22,12,50,28.00
2006,07,22,12,51,28.10
2006,07,22,12,52,28.20
2006,07,22,12,53,28.20
2006,07,22,12,54,28.30
2006,07,22,12,55,28.30
2006,07,22,12,56,28.40
2006,07,22,12,57,28.40
2006,07,22,12,58,28.50
2006,07,22,12,59,28.60
2006,07,22,13,00,28.70
2006,07,22,13,01,28.90
2006,07,22,13,02,28.90
2006,07,22,13,03,28.90
2006,07,22,13,04,28.90
2006,07,22,13,05,28.90
2006,07,22,13,06,29.00
2006,07,22,13,07,29.10
2006,07,22,13,08,29.20
2006,07,22,13,09,29.20
2006,07,22,13,10,29.30
2006,07,22,13,11,29.30
2006,07,22,13,12,29.30
2006,07,22,13,13,29.20
2006,07,22,13,14,29.10
2006,07,22,13,15,28.90
2006,07,22,13,16,28.90
2006,07,22,13,17,28.90
2006,07,22,13,18,28.90
2006,07,22,13,19,28.90
2006,07,22,13,20,28.90
2006,07,22,13,21,28.90
2006,07,22,13,22,28.80
2006,07,22,13,23,28.90
2006,07,22,13,24,28.90
2006,07,22,13,25,28.90
2006,07,22,13,26,29.00
2006,07,22,13,27,29.10
2006,07,22,13,28,29.20
2006,07,22,13,29,29.40
2006,07,22,13,30,29.50
2006,07,22,13,31,29.60
2006,07,22,13,32,29.70
2006,07,22,13,33,29.70
2006,07,22,13,34,29.80
2006,07,22,13,35,29.80
2006,07,22,13,36,29.80
2006,07,22,13,37,29.80
2006,07,22,13,38,29.80
2006,07,22,13,39,29.70
2006,07,22,13,40,29.60
2006,07,22,13,41,29.60
2006,07,22,13,42,29.50
2006,07,22,13,43,29.40
2006,07,22,13,44,29.30
2006,07,22,13,45,29.30
2006,07,22,13,46,29.30
2006,07,22,13,47,29.30
2006,07,22,13,48,29.30
2006,07,22,13,49,29.40
2006,07,22,13,50,29.40
2006,07,22,13,51,29.40
2006,07,22,13,52,29.40
2006,07,22,13,53,29.50
2006,07,22,13,54,29.50
2006,07,22,13,55,29.50
2006,07,22,13,56,29.50
2006,07,22,13,57,29.50
2006,07,22,13,58,29.60
2006,07,22,13,59,29.70
2006,07,22,14,00,29.70
2006,07,22,14,01,29.80
2006,07,22,14,02,29.80
2006,07,22,14,03,29.80
2006,07,22,14,04,29.90
2006,07,22,14,05,29.90
2006,07,22,14,06,29.90
2006,07,22,14,07,30.00
2006,07,22,14,08,30.10
2006,07,22,14,09,30.30
2006,07,22,14,10,30.30
2006,07,22,14,11,30.30
2006,07,22,14,12,30.40
2006,07,22,14,13,30.50
2006,07,22,14,14,30.60
2006,07,22,14,15,30.70
2006,07,22,14,16,30.80
2006,07,22,14,17,30.80
2006,07,22,14,18,31.00
2006,07,22,14,19,31.10
2006,07,22,14,20,31.00
2006,07,22,14,21,30.80
2006,07,22,14,22,30.70
2006,07,22,14,23,30.60
2006,07,22,14,24,30.60
2006,07,22,14,25,30.70
2006,07,22,14,26,30.70
2006,07,22,14,27,30.70
2006,07,22,14,28,30.70
2006,07,22,14,29,30.90
2006,07,22,14,30,31.00
2006,07,22,14,31,31.00
2006,07,22,14,32,31.00
2006,07,22,14,33,31.00
2006,07,22,14,34,31.10
2006,07,22,14,35,31.10
2006,07,22,14,36,31.10
2006,07,22,14,37,31.20
2006,07,22,14,38,31.40
2006,07,22,14,39,31.40
2006,07,22,14,40,31.40
2006,07,22,14,41,31.50
2006,07,22,14,42,31.60
2006,07,22,14,43,31.70
2006,07,22,14,44,31.80
2006,07,22,14,45,31.90
2006,07,22,14,46,31.90
2006,07,22,14,47,31.90
2006,07,22,14,48,31.90
2006,07,22,14,49,32.00
2006,07,22,14,50,32.10
2006,07,22,14,51,32.10
2006,07,22,14,52,32.20
2006,07,22,14,53,32.30
2006,07,22,14,54,32.30
2006,07,22,14,55,32.40
2006,07,22,14,56,32.40
2006,07,22,14,57,32.40
2006,07,22,14,58,32.50
2006,07,22,14,59,32.50
2006,07,22,15,00,32.60
2006,07,22,15,01,32.50
2006,07,22,15,02,32.50
2006,07,22,15,03,32.40
2006,07,22,15,04,32.20
2006,07,22,15,05,32.20
2006,07,22,15,06,32.20
2006,07,22,15,07,32.20
2006,07,22,15,08,32.30
2006,07,22,15,09,32.30
2006,07,22,15,10,32.40
2006,07,22,15,11,32.50
2006,07,22,15,12,32.50
2006,07,22,15,13,32.60
2006,07,22,15,14,32.70
2006,07,22,15,15,32.80
2006,07,22,15,16,32.90
2006,07,22,15,17,33.00
2006,07,22,15,18,33.10
2006,07,22,15,19,33.10
2006,07,22,15,20,33.20
2006,07,22,15,21,33.40
2006,07,22,15,22,33.40
2006,07,22,15,23,33.40
2006,07,22,15,24,33.50
2006,07,22,15,25,33.50
2006,07,22,15,26,33.40
2006,07,22,15,27,33.20
2006,07,22,15,28,33.00
2006,07,22,15,29,33.00
2006,07,22,15,30,32.90
2006,07,22,15,31,32.80
2006,07,22,15,32,32.80
2006,07,22,15,33,32.90
2006,07,22,15,34,32.90
2006,07,22,15,35,32.80
2006,07,22,15,36,32.70
2006,07,22,15,37,32.60
2006,07,22,15,38,32.60
2006,07,22,15,39,32.50
2006,07,22,15,40,32.20
2006,07,22,15,41,32.10
2006,07,22,15,42,32.10
2006,07,22,15,43,32.10
2006,07,22,15,44,31.90
2006,07,22,15,45,31.90
2006,07,22,15,46,31.80
2006,07,22,15,47,31.70
2006,07,22,15,48,31.70
2006,07,22,15,49,31.70
2006,07,22,15,50,31.90
2006,07,22,15,51,31.90
2006,07,22,15,52,31.90
2006,07,22,15,53,32.00
2006,07,22,15,54,32.10
2006,07,22,15,55,32.20
2006,07,22,15,56,32.30
2006,07,22,15,57,32.50
2006,07,22,15,58,32.60
2006,07,22,15,59,32.60
2006,07,22,16,00,32.60
2006,07,22,16,01,32.60
2006,07,22,16,02,32.60
2006,07,22,16,03,32.80
2006,07,22,16,04,32.80
2006,07,22,16,05,32.80
2006,07,22,16,06,32.80
2006,07,22,16,07,32.80
2006,07,22,16,08,32.80
2006,07,22,16,09,32.60
2006,07,22,16,10,32.60
2006,07,22,16,11,32.60
2006,07,22,16,12,32.70
2006,07,22,16,13,32.80
2006,07,22,16,14,32.80
2006,07,22,16,15,32.80
2006,07,22,16,16,32.80
2006,07,22,16,17,32.80
2006,07,22,16,18,32.80
2006,07,22,16,19,32.80
2006,07,22,16,20,32.80
2006,07,22,16,21,32.60
2006,07,22,16,22,32.50
2006,07,22,16,23,32.40
2006,07,22,16,24,32.30
2006,07,22,16,25,32.20
2006,07,22,16,26,32.10
2006,07,22,16,27,32.10
2006,07,22,16,28,32.10
2006,07,22,16,29,32.10
2006,07,22,16,30,32.10
2006,07,22,16,31,32.00
2006,07,22,16,32,31.80
2006,07,22,16,33,31.70
2006,07,22,16,34,31.70
2006,07,22,16,35,31.80
2006,07,22,16,36,32.00
2006,07,22,16,37,32.10
2006,07,22,16,38,32.10
2006,07,22,16,39,32.20
2006,07,22,16,40,32.30
2006,07,22,16,41,32.30
2006,07,22,16,42,32.30
2006,07,22,16,43,32.30
2006,07,22,16,44,32.30
2006,07,22,16,45,32.30
2006,07,22,16,46,32.40
2006,07,22,16,47,32.40
2006,07,22,16,48,32.40
2006,07,22,16,49,32.50
2006,07,22,16,50,32.50
2006,07,22,16,51,32.60
2006,07,22,16,52,32.60
2006,07,22,16,53,32.60
2006,07,22,16,54,32.60
2006,07,22,16,55,32.50
2006,07,22,16,56,32.40
2006,07,22,16,57,32.20
2006,07,22,16,58,32.10
2006,07,22,16,59,32.10
2006,07,22,17,00,32.00
2006,07,22,17,01,31.90
2006,07,22,17,02,31.90
2006,07,22,17,03,31.70
2006,07,22,17,04,31.50
2006,07,22,17,05,31.30
2006,07,22,17,06,31.10
2006,07,22,17,07,30.80
2006,07,22,17,08,30.60
2006,07,22,17,09,30.40
2006,07,22,17,10,30.40
2006,07,22,17,11,30.50
2006,07,22,17,12,30.60
2006,07,22,17,13,30.60
2006,07,22,17,14,30.60
2006,07,22,17,15,30.70
2006,07,22,17,16,30.80
2006,07,22,17,17,30.90
2006,07,22,17,18,31.00
2006,07,22,17,19,31.10